�N����,�����b,�ŏ������i�x�j,���ϕ����i�x�j,�ő啗���i�x�j,�ŏ�����(m/s),���ϕ���(m/s),�ő啗��(m/s),�C��(���j,���x�i���j,�C��(hPa),�~�J��(mm),�~�J����(�b�j,�~�J���x(mm/h),�~�Ђ傤��(hit/���u),�~�Ђ傤����(�b�j,�~�Ђ傤���x(hit/���uh),�q�[�^���x(���j,�q�[�^�[�d���iV),�d���d���iV),�Q�Ɠd���iV)
2009/04/01,00:00:01,207,28,206,0.0,8.6,18.0,19.0,73.9,1010.6,0.01,40,0.0,0.0,0,0.0,17.9,0.0,11.7,3.475
2009/04/01,00:10:01,213,32,211,0.2,7.9,15.9,19.0,73.8,1010.7,0.00,0,0.0,0.0,0,0.0,17.7,0.0,11.8,3.473
2009/04/01,00:20:01,191,8,186,0.2,9.8,23.4,19.0,73.5,1010.6,0.00,10,0.0,0.0,0,0.0,17.9,0.0,11.8,3.472
2009/04/01,00:30:01,189,7,183,0.2,10.8,24.1,19.2,70.2,1010.6,0.00,0,0.0,0.0,0,0.0,18.4,0.0,11.7,3.474
2009/04/01,00:40:01,189,7,188,0.4,10.9,23.3,19.2,68.8,1010.6,0.00,0,0.0,0.0,0,0.0,18.2,0.0,11.7,3.473
2009/04/01,00:50:01,193,11,189,0.4,10.4,22.4,19.2,71.6,1010.7,0.00,0,0.0,0.0,0,0.0,18.0,0.0,11.7,3.472
2009/04/01,01:00:01,194,13,190,0.4,10.7,22.8,19.2,71.6,1010.7,0.00,0,0.0,0.0,0,0.0,18.2,0.0,11.7,3.472
2009/04/01,01:10:01,199,14,193,0.2,10.4,22.4,19.0,68.4,1010.4,0.00,0,0.0,0.0,0,0.0,17.9,0.0,11.8,3.473
2009/04/01,01:20:01,190,10,186,0.4,10.8,24.2,19.0,69.4,1010.5,0.00,0,0.0,0.0,0,0.0,18.0,0.0,11.8,3.473
2009/04/01,01:30:01,192,9,189,0.1,10.8,23.9,19.0,69.9,1010.3,0.00,0,0.0,0.0,0,0.0,18.0,0.0,12.0,3.473
2009/04/01,01:40:01,191,8,187,0.4,10.8,23.6,18.8,67.7,1010.5,0.00,0,0.0,0.0,0,0.0,17.9,0.0,11.8,3.472
2009/04/01,01:50:01,191,8,184,0.6,10.6,24.7,18.7,67.8,1010.3,0.00,0,0.0,0.0,0,0.0,17.5,0.0,11.7,3.473
2009/04/01,02:00:01,190,7,183,0.2,10.8,22.3,18.7,67.8,1010.5,0.00,0,0.0,0.0,0,0.0,17.5,0.0,11.7,3.472
2009/04/01,02:10:01,189,8,186,0.4,10.6,23.8,18.5,66.8,1010.4,0.00,0,0.0,0.0,0,0.0,17.7,0.0,11.6,3.473
2009/04/01,02:20:01,186,5,182,0.2,10.0,22.6,18.5,66.9,1010.6,0.00,0,0.0,0.0,0,0.0,17.4,0.0,11.7,3.472
2009/04/01,02:30:01,187,5,179,0.3,10.8,23.6,18.4,65.4,1010.3,0.00,0,0.0,0.0,0,0.0,17.5,0.0,11.9,3.473
2009/04/01,02:40:01,188,7,187,0.2,10.1,21.0,18.4,66.7,1010.4,0.00,0,0.0,0.0,0,0.0,17.5,0.0,11.7,3.473
2009/04/01,02:50:01,188,6,185,0.3,10.1,25.3,18.5,67.9,1010.5,0.00,0,0.0,0.0,0,0.0,17.4,0.0,11.8,3.473
2009/04/01,03:00:01,193,10,190,0.3,9.9,24.8,18.3,64.2,1010.7,0.00,0,0.0,0.0,0,0.0,17.4,0.0,11.8,3.473
2009/04/01,03:10:01,189,5,181,0.1,9.8,22.2,18.4,66.2,1010.7,0.00,0,0.0,0.0,0,0.0,17.5,0.0,11.9,3.473
2009/04/01,03:20:01,181,359,177,0.4,10.2,24.7,18.3,64.1,1010.6,0.00,0,0.0,0.0,0,0.0,17.4,0.0,11.8,3.473
2009/04/01,03:30:01,184,2,180,0.1,10.1,22.2,18.4,64.3,1010.6,0.00,0,0.0,0.0,0,0.0,17.4,0.0,11.8,3.473
2009/04/01,03:40:01,186,3,180,0.3,9.8,24.2,18.3,62.1,1010.9,0.00,0,0.0,0.0,0,0.0,17.4,0.0,11.7,3.476
2009/04/01,03:50:01,181,359,172,0.3,9.7,20.3,18.3,59.3,1010.8,0.00,0,0.0,0.0,0,0.0,17.5,0.0,11.8,3.472
2009/04/01,04:00:01,177,356,174,0.2,9.4,21.8,18.3,60.8,1010.7,0.00,0,0.0,0.0,0,0.0,17.4,0.0,11.7,3.473
2009/04/01,04:10:01,180,359,178,0.3,9.4,21.3,18.4,62.2,1010.7,0.00,0,0.0,0.0,0,0.0,17.5,0.0,11.8,3.474
2009/04/01,04:20:01,186,8,185,0.0,9.0,22.1,18.3,63.9,1010.6,0.00,0,0.0,0.0,0,0.0,17.4,0.0,11.7,3.474
2009/04/01,04:30:01,198,18,197,0.2,8.9,19.6,18.3,65.8,1010.5,0.00,0,0.0,0.0,0,0.0,17.5,0.0,11.9,3.474
2009/04/01,04:40:01,198,18,198,0.1,11.0,21.5,18.4,62.7,1010.4,0.00,0,0.0,0.0,0,0.0,17.2,0.0,12.0,3.474
2009/04/01,04:50:01,197,16,194,0.2,11.0,21.1,18.4,65.9,1010.4,0.00,0,0.0,0.0,0,0.0,17.4,0.0,12.0,3.474
2009/04/01,05:00:01,194,14,193,0.3,12.0,22.4,18.4,64.0,1010.5,0.00,0,0.0,0.0,0,0.0,17.4,0.0,11.9,3.473
2009/04/01,05:10:01,194,10,189,0.2,11.7,25.9,18.3,62.4,1010.6,0.00,0,0.0,0.0,0,0.0,17.2,0.0,11.9,3.474
2009/04/01,05:20:01,197,12,192,0.3,11.5,20.5,18.2,59.3,1010.9,0.00,0,0.0,0.0,0,0.0,17.2,0.0,12.0,3.473
2009/04/01,05:30:01,193,13,190,0.3,10.9,19.7,18.2,60.3,1011.0,0.00,0,0.0,0.0,0,0.0,17.2,0.0,11.9,3.473
2009/04/01,05:40:01,191,9,187,0.1,10.6,18.6,18.1,60.6,1011.0,0.00,0,0.0,0.0,0,0.0,17.2,0.0,11.9,3.473
2009/04/01,05:50:01,192,11,191,0.4,11.1,20.3,18.2,61.8,1011.1,0.00,0,0.0,0.0,0,0.0,17.2,0.0,11.9,3.474
2009/04/01,06:00:01,194,14,191,0.1,11.2,19.0,18.2,60.2,1011.4,0.00,0,0.0,0.0,0,0.0,17.2,0.0,12.0,3.474
2009/04/01,06:10:01,197,16,196,0.1,10.7,19.7,18.3,62.5,1011.2,0.00,0,0.0,0.0,0,0.0,17.4,0.0,11.9,3.474
2009/04/01,06:20:01,193,12,192,0.2,11.0,19.8,18.2,58.9,1011.3,0.00,0,0.0,0.0,0,0.0,17.4,0.0,11.9,3.473
2009/04/01,06:30:01,193,11,188,0.2,10.6,20.0,18.2,58.6,1011.6,0.00,0,0.0,0.0,0,0.0,17.2,0.0,11.7,3.473
2009/04/01,06:40:01,194,13,193,0.2,10.4,18.8,18.2,57.7,1011.3,0.00,0,0.0,0.0,0,0.0,17.2,0.0,12.0,3.473
2009/04/01,06:50:01,193,14,193,0.1,10.3,19.8,18.2,57.5,1011.6,0.00,0,0.0,0.0,0,0.0,17.4,0.0,11.9,3.473
2009/04/01,07:00:01,194,14,194,0.4,10.0,16.7,18.3,55.0,1011.8,0.00,0,0.0,0.0,0,0.0,17.7,0.0,12.1,3.473
2009/04/01,07:10:01,198,16,195,0.3,10.0,16.6,18.3,51.3,1011.9,0.00,0,0.0,0.0,0,0.0,17.9,0.0,12.0,3.473
2009/04/01,07:20:01,200,19,198,0.2,10.2,21.1,18.4,59.0,1012.0,0.00,0,0.0,0.0,0,0.0,18.6,0.0,11.9,3.473
2009/04/01,07:30:01,199,19,198,0.3,11.0,19.8,18.3,64.5,1011.9,0.00,0,0.0,0.0,0,0.0,18.0,0.0,11.9,3.474
2009/04/01,07:40:01,200,18,197,0.1,11.7,20.5,18.2,65.5,1012.1,0.00,0,0.0,0.0,0,0.0,17.4,0.0,12.0,3.474
2009/04/01,07:50:01,195,14,192,0.3,12.3,19.9,18.1,63.3,1012.3,0.00,0,0.0,0.0,0,0.0,17.7,0.0,12.0,3.474
2009/04/01,08:00:01,195,14,190,0.2,12.0,20.6,18.2,63.1,1012.1,0.00,0,0.0,0.0,0,0.0,17.7,0.0,12.1,3.473
2009/04/01,08:10:01,195,15,193,0.1,12.0,21.2,18.1,61.0,1012.3,0.00,0,0.0,0.0,0,0.0,17.5,0.0,12.0,3.474
2009/04/01,08:20:01,197,14,194,0.8,11.9,23.0,18.2,63.0,1012.7,0.00,0,0.0,0.0,0,0.0,17.7,0.0,11.8,3.473
2009/04/01,08:30:01,196,15,194,0.1,12.1,20.0,18.2,61.2,1012.7,0.00,0,0.0,0.0,0,0.0,18.0,0.0,11.9,3.473
2009/04/01,08:40:01,196,15,195,0.1,11.8,20.1,18.0,62.6,1013.1,0.00,0,0.0,0.0,0,0.0,17.5,0.0,11.8,3.474
2009/04/01,08:50:01,192,12,192,0.3,12.1,24.8,18.0,62.2,1012.7,0.00,0,0.0,0.0,0,0.0,17.7,0.0,11.8,3.473
2009/04/01,09:00:01,195,15,191,0.6,12.1,21.2,17.9,61.2,1013.0,0.00,0,0.0,0.0,0,0.0,17.5,0.0,11.8,3.473
2009/04/01,09:10:01,198,16,195,0.3,12.6,22.7,18.0,60.6,1012.8,0.00,0,0.0,0.0,0,0.0,18.0,0.0,11.9,3.473
2009/04/01,09:20:01,197,15,194,0.3,12.3,23.5,17.8,60.3,1013.1,0.00,0,0.0,0.0,0,0.0,17.7,0.0,11.9,3.472
2009/04/01,09:30:01,195,14,194,0.5,12.3,21.7,17.9,61.5,1013.1,0.00,0,0.0,0.0,0,0.0,18.0,0.0,12.0,3.470
2009/04/01,09:40:01,195,14,193,0.6,12.0,21.8,18.0,56.7,1013.1,0.00,0,0.0,0.0,0,0.0,18.7,0.0,11.7,3.473
2009/04/01,09:50:01,199,17,196,0.1,12.3,22.1,18.2,57.9,1013.4,0.00,0,0.0,0.0,0,0.0,18.9,0.0,11.9,3.473
2009/04/01,10:00:01,199,16,196,0.6,11.2,20.3,18.3,57.2,1013.5,0.00,0,0.0,0.0,0,0.0,19.1,0.0,11.8,3.472
2009/04/01,10:10:01,198,16,189,0.3,11.9,20.5,18.0,58.6,1013.5,0.00,0,0.0,0.0,0,0.0,18.9,0.0,11.9,3.472
2009/04/01,10:20:01,199,15,195,0.3,11.5,21.1,18.1,58.7,1013.1,0.00,0,0.0,0.0,0,0.0,19.6,0.0,11.7,3.475
2009/04/01,10:30:01,198,18,197,0.2,12.0,21.6,18.1,56.0,1013.4,0.00,0,0.0,0.0,0,0.0,19.4,0.0,11.7,3.473
2009/04/01,10:40:01,197,17,193,0.5,11.9,21.5,18.2,56.7,1013.4,0.00,0,0.0,0.0,0,0.0,19.4,0.0,11.7,3.473
2009/04/01,10:50:01,201,16,196,0.4,11.9,19.8,18.1,54.6,1013.4,0.00,0,0.0,0.0,0,0.0,19.4,0.0,11.8,3.473
2009/04/01,11:00:01,197,16,195,0.5,11.8,20.8,18.4,53.6,1013.5,0.00,0,0.0,0.0,0,0.0,19.7,0.0,11.9,3.473
2009/04/01,11:10:01,194,13,193,0.4,10.3,18.8,18.3,57.0,1013.3,0.00,0,0.0,0.0,0,0.0,19.7,0.0,12.0,3.473
2009/04/01,11:20:01,198,17,194,0.4,11.6,19.9,18.5,57.4,1013.5,0.00,0,0.0,0.0,0,0.0,19.6,0.0,12.0,3.473
2009/04/01,11:30:01,194,12,192,0.7,10.2,18.3,18.5,59.6,1013.5,0.00,0,0.0,0.0,0,0.0,19.4,0.0,11.8,3.473
2009/04/01,11:40:01,195,14,191,0.7,10.9,20.5,17.8,58.4,1013.6,0.00,0,0.0,0.0,0,0.0,18.6,0.0,11.8,3.474
2009/04/01,11:50:01,195,14,191,0.4,11.1,19.2,17.9,57.6,1013.8,0.00,0,0.0,0.0,0,0.0,18.9,0.0,11.8,3.472
2009/04/01,12:00:01,195,15,190,0.7,10.8,17.6,18.0,56.1,1013.6,0.00,0,0.0,0.0,0,0.0,18.7,0.0,11.9,3.473
2009/04/01,12:10:01,195,15,194,0.4,10.9,19.6,18.3,57.2,1013.7,0.00,0,0.0,0.0,0,0.0,19.6,0.0,11.7,3.472
2009/04/01,12:20:01,193,11,191,0.3,9.9,18.8,18.6,56.9,1013.7,0.00,0,0.0,0.0,0,0.0,20.1,0.0,12.0,3.472
2009/04/01,12:30:01,189,9,189,0.2,10.0,18.3,18.1,55.6,1013.5,0.00,0,0.0,0.0,0,0.0,19.7,0.0,11.9,3.473
2009/04/01,12:40:01,192,12,187,0.4,9.8,19.1,18.5,56.9,1013.6,0.00,0,0.0,0.0,0,0.0,19.9,0.0,12.0,3.473
2009/04/01,12:50:01,189,9,187,0.3,9.9,18.8,18.3,58.6,1013.4,0.00,0,0.0,0.0,0,0.0,19.7,0.0,12.0,3.472
2009/04/01,13:00:01,193,14,191,0.4,10.4,18.4,18.3,60.7,1013.4,0.00,0,0.0,0.0,0,0.0,19.4,0.0,11.7,3.474
2009/04/01,13:10:01,189,8,187,0.3,9.6,18.7,18.4,57.9,1013.3,0.00,0,0.0,0.0,0,0.0,19.9,0.0,12.1,3.472
2009/04/01,13:20:01,190,8,187,0.2,9.7,18.0,18.3,56.1,1013.4,0.00,0,0.0,0.0,0,0.0,19.7,0.0,12.1,3.472
2009/04/01,13:30:01,189,8,186,0.1,10.1,17.3,18.0,56.6,1013.3,0.00,0,0.0,0.0,0,0.0,19.2,0.0,11.9,3.472
2009/04/01,13:40:01,195,11,190,0.2,9.7,17.6,17.9,56.4,1013.0,0.00,0,0.0,0.0,0,0.0,18.7,0.0,11.8,3.473
2009/04/01,13:50:01,197,9,186,0.1,9.2,16.9,18.0,60.5,1013.2,0.00,0,0.0,0.0,0,0.0,18.7,0.0,11.7,3.473
2009/04/01,14:00:01,191,10,185,0.8,10.2,18.3,17.7,59.4,1013.1,0.00,0,0.0,0.0,0,0.0,18.6,0.0,11.9,3.472
2009/04/01,14:10:01,192,11,189,0.5,9.7,15.6,17.8,58.7,1013.0,0.00,0,0.0,0.0,0,0.0,18.7,0.0,11.8,3.472
2009/04/01,14:20:01,195,16,195,0.2,10.4,18.2,17.9,62.8,1012.9,0.00,0,0.0,0.0,0,0.0,18.7,0.0,11.9,3.473
2009/04/01,14:30:01,194,9,174,0.4,10.1,17.4,17.5,61.7,1012.8,0.00,0,0.0,0.0,0,0.0,18.4,0.0,11.9,3.472
2009/04/01,14:40:01,201,10,187,0.2,9.9,17.7,18.0,58.0,1012.6,0.00,0,0.0,0.0,0,0.0,19.2,0.0,12.1,3.473
2009/04/01,14:50:01,191,10,173,0.2,10.4,20.4,17.6,58.7,1012.6,0.00,0,0.0,0.0,0,0.0,18.7,0.0,11.7,3.472
2009/04/01,15:00:01,191,10,186,0.3,9.9,17.9,17.7,57.2,1012.6,0.00,0,0.0,0.0,0,0.0,18.7,0.0,11.7,3.472
2009/04/01,15:10:01,193,10,190,0.4,10.0,17.9,17.9,60.2,1012.5,0.00,0,0.0,0.0,0,0.0,18.7,0.0,11.9,3.473
2009/04/01,15:20:01,192,11,189,0.2,10.1,18.7,17.7,58.7,1012.6,0.00,0,0.0,0.0,0,0.0,18.6,0.0,11.8,3.474
2009/04/01,15:30:01,194,9,188,0.3,9.9,16.9,17.3,58.0,1012.6,0.00,0,0.0,0.0,0,0.0,17.9,0.0,11.8,3.475
2009/04/01,15:40:01,189,9,188,0.4,10.2,17.1,17.3,59.2,1012.8,0.00,0,0.0,0.0,0,0.0,17.7,0.0,11.9,3.473
2009/04/01,15:50:01,194,6,159,0.4,10.0,17.7,17.0,59.8,1012.8,0.00,0,0.0,0.0,0,0.0,17.4,0.0,11.7,3.474
2009/04/01,16:00:01,189,10,189,0.5,10.4,20.3,16.9,60.0,1012.8,0.00,0,0.0,0.0,0,0.0,16.7,0.0,11.8,3.473
2009/04/01,16:10:01,196,12,189,0.7,10.9,25.0,16.8,56.6,1012.8,0.00,0,0.0,0.0,0,0.0,16.5,0.0,11.7,3.473
2009/04/01,16:20:01,190,9,188,1.0,10.2,17.3,16.9,61.0,1012.8,0.00,0,0.0,0.0,0,0.0,16.7,0.0,11.7,3.473
2009/04/01,16:30:01,195,14,194,0.4,10.6,19.7,16.8,58.2,1012.9,0.00,0,0.0,0.0,0,0.0,16.7,0.0,11.9,3.472
2009/04/01,16:40:01,191,11,190,0.4,10.0,18.4,16.8,60.6,1012.7,0.00,0,0.0,0.0,0,0.0,16.5,0.0,11.9,3.474
2009/04/01,16:50:01,197,17,195,0.4,11.4,20.0,16.5,58.6,1013.0,0.00,0,0.0,0.0,0,0.0,16.0,0.0,11.8,3.473
2009/04/01,17:00:01,198,16,195,0.4,10.6,20.8,16.5,57.1,1013.2,0.00,0,0.0,0.0,0,0.0,15.9,0.0,11.9,3.474
2009/04/01,17:10:01,195,14,192,0.3,9.9,18.2,16.6,58.4,1013.1,0.00,0,0.0,0.0,0,0.0,16.0,0.0,11.7,3.474
2009/04/01,17:20:01,193,10,188,0.3,10.0,19.1,16.4,60.3,1013.5,0.00,0,0.0,0.0,0,0.0,15.9,0.0,11.7,3.474
2009/04/01,17:30:01,194,13,193,1.0,10.6,20.4,16.3,54.9,1013.5,0.00,0,0.0,0.0,0,0.0,15.9,0.0,11.7,3.473
2009/04/01,17:40:01,192,11,179,0.3,10.0,19.7,16.2,55.1,1013.6,0.00,0,0.0,0.0,0,0.0,15.7,0.0,11.7,3.474
2009/04/01,17:50:01,193,13,193,0.5,9.8,20.5,16.2,56.1,1013.6,0.00,0,0.0,0.0,0,0.0,15.4,0.0,11.8,3.474
2009/04/01,18:00:01,194,13,189,0.4,9.8,17.0,16.2,59.2,1013.7,0.00,0,0.0,0.0,0,0.0,15.5,0.0,11.7,3.474
2009/04/01,18:10:01,196,11,187,0.4,9.5,18.6,16.0,54.4,1013.8,0.00,0,0.0,0.0,0,0.0,15.2,0.0,11.9,3.474
2009/04/01,18:20:01,192,11,187,0.4,9.6,17.8,15.9,52.9,1013.9,0.00,0,0.0,0.0,0,0.0,15.5,0.0,12.0,3.475
2009/04/01,18:30:01,197,14,191,0.6,9.5,17.6,15.9,55.1,1013.7,0.00,0,0.0,0.0,0,0.0,15.0,0.0,12.0,3.476
2009/04/01,18:40:01,196,15,195,0.4,9.7,20.9,15.8,54.0,1014.0,0.00,0,0.0,0.0,0,0.0,15.0,0.0,11.8,3.474
2009/04/01,18:50:01,194,14,192,0.4,9.6,17.5,15.7,54.6,1013.8,0.00,0,0.0,0.0,0,0.0,14.9,0.0,12.0,3.476
2009/04/01,19:00:01,195,15,194,0.3,9.8,18.4,15.7,56.8,1014.0,0.00,0,0.0,0.0,0,0.0,14.7,0.0,12.0,3.474
2009/04/01,19:10:01,194,13,194,0.3,9.9,19.5,15.7,54.2,1014.2,0.00,0,0.0,0.0,0,0.0,14.7,0.0,12.0,3.474
2009/04/01,19:20:01,193,14,186,0.1,9.6,19.8,15.7,58.5,1014.4,0.00,0,0.0,0.0,0,0.0,14.9,0.0,11.9,3.474
2009/04/01,19:30:01,198,15,195,0.2,9.9,19.3,15.7,57.6,1014.6,0.00,0,0.0,0.0,0,0.0,14.7,0.0,12.1,3.474
2009/04/01,19:40:01,191,11,190,0.2,9.7,18.1,15.8,59.0,1014.6,0.00,0,0.0,0.0,0,0.0,15.0,0.0,11.9,3.474
2009/04/01,19:50:01,188,9,187,0.8,9.7,21.5,15.6,57.0,1014.9,0.00,0,0.0,0.0,0,0.0,14.9,0.0,11.9,3.475
2009/04/01,20:00:01,195,15,194,0.6,10.1,19.4,15.6,57.5,1014.9,0.00,0,0.0,0.0,0,0.0,14.7,0.0,11.9,3.474
2009/04/01,20:10:01,192,8,184,0.2,9.5,19.3,15.4,52.0,1015.1,0.00,0,0.0,0.0,0,0.0,14.7,0.0,12.1,3.474
2009/04/01,20:20:01,191,7,184,0.9,9.7,17.7,15.5,56.4,1015.1,0.00,0,0.0,0.0,0,0.0,14.5,0.0,11.9,3.475
2009/04/01,20:30:01,194,9,190,0.2,9.4,19.7,15.3,51.7,1015.3,0.00,0,0.0,0.0,0,0.0,14.4,0.0,11.9,3.474
2009/04/01,20:40:01,192,13,191,0.1,9.3,16.8,15.3,54.8,1015.3,0.00,0,0.0,0.0,0,0.0,14.0,0.0,12.0,3.474
2009/04/01,20:50:01,193,13,182,0.1,9.6,19.9,15.2,54.7,1015.6,0.00,0,0.0,0.0,0,0.0,14.4,0.0,11.9,3.475
2009/04/01,21:00:01,192,11,189,0.7,9.2,18.8,15.2,53.0,1015.6,0.00,0,0.0,0.0,0,0.0,14.4,0.0,11.7,3.474
2009/04/01,21:10:01,199,17,196,0.2,10.2,22.8,15.2,59.3,1015.7,0.00,0,0.0,0.0,0,0.0,14.2,0.0,11.8,3.474
2009/04/01,21:20:01,194,12,191,0.5,9.9,21.8,15.2,57.7,1016.0,0.00,0,0.0,0.0,0,0.0,14.4,0.0,11.9,3.475
2009/04/01,21:30:01,193,13,190,0.8,10.0,20.4,15.1,56.0,1015.8,0.00,0,0.0,0.0,0,0.0,14.4,0.0,12.1,3.474
2009/04/01,21:40:01,197,17,197,0.2,9.9,19.7,15.2,56.0,1015.7,0.00,0,0.0,0.0,0,0.0,14.4,0.0,11.7,3.474
2009/04/01,21:50:01,196,15,193,0.3,9.7,20.6,15.1,52.7,1015.9,0.00,0,0.0,0.0,0,0.0,14.2,0.0,11.8,3.474
2009/04/01,22:00:01,196,13,192,0.2,9.2,21.6,15.0,55.9,1015.9,0.00,0,0.0,0.0,0,0.0,14.0,0.0,11.7,3.474
2009/04/01,22:10:01,198,13,192,0.2,9.1,21.4,15.3,60.2,1015.8,0.00,0,0.0,0.0,0,0.0,14.4,0.0,11.7,3.473
2009/04/01,22:20:01,202,18,195,0.5,10.3,22.9,15.1,56.6,1015.7,0.00,0,0.0,0.0,0,0.0,14.2,0.0,11.8,3.474
2009/04/01,22:30:01,196,16,196,0.4,10.2,20.9,15.2,56.6,1015.7,0.00,0,0.0,0.0,0,0.0,14.4,0.0,11.7,3.474
2009/04/01,22:40:01,191,10,190,0.3,9.6,22.5,15.1,52.1,1015.7,0.00,0,0.0,0.0,0,0.0,14.2,0.0,11.8,3.474
2009/04/01,22:50:01,195,13,189,0.4,9.3,18.0,15.1,53.7,1015.5,0.00,0,0.0,0.0,0,0.0,14.2,0.0,11.8,3.475
2009/04/01,23:00:01,198,13,193,0.2,9.1,18.7,15.2,58.3,1015.5,0.00,0,0.0,0.0,0,0.0,14.2,0.0,11.8,3.474
2009/04/01,23:10:01,200,13,191,0.2,9.5,23.2,15.1,57.2,1015.7,0.00,0,0.0,0.0,0,0.0,14.2,0.0,11.7,3.475
2009/04/01,23:20:01,192,9,188,0.0,9.7,19.4,15.2,54.1,1015.7,0.00,0,0.0,0.0,0,0.0,14.2,0.0,11.7,3.475
2009/04/01,23:30:01,192,10,190,0.3,9.3,20.6,15.1,49.9,1015.8,0.00,0,0.0,0.0,0,0.0,14.2,0.0,11.7,3.474
2009/04/01,23:40:01,187,6,185,0.7,9.1,17.5,15.1,53.3,1015.6,0.00,0,0.0,0.0,0,0.0,14.0,0.0,11.8,3.475
2009/04/01,23:50:01,193,9,176,0.2,8.8,17.0,15.0,56.6,1015.4,0.00,0,0.0,0.0,0,0.0,14.2,0.0,11.8,3.475
2009/04/02,00:00:01,193,12,189,0.7,8.2,16.6,15.0,55.7,1015.4,0.00,0,0.0,0.0,0,0.0,14.0,0.0,11.7,3.474
2009/04/02,00:10:01,190,7,177,0.5,8.9,18.1,15.4,60.1,1014.7,0.00,0,0.0,0.0,0,0.0,14.4,0.0,11.8,3.474
2009/04/02,00:20:01,187,7,182,0.8,9.7,19.2,15.4,59.7,1015.2,0.00,0,0.0,0.0,0,0.0,14.7,0.0,11.7,3.474
2009/04/02,00:30:01,193,7,188,0.5,9.7,19.1,15.3,58.6,1015.1,0.00,0,0.0,0.0,0,0.0,14.5,0.0,11.9,3.475
2009/04/02,00:40:01,191,7,182,0.5,9.6,22.5,15.2,54.7,1015.0,0.00,0,0.0,0.0,0,0.0,14.4,0.0,11.8,3.473
2009/04/02,00:50:01,197,3,180,0.4,10.0,21.9,15.2,53.2,1014.9,0.00,0,0.0,0.0,0,0.0,14.2,0.0,11.9,3.475
2009/04/02,01:00:01,190,7,180,0.6,9.5,20.3,15.2,51.6,1015.0,0.00,0,0.0,0.0,0,0.0,14.5,0.0,11.8,3.473
2009/04/02,01:10:01,191,8,183,0.5,9.5,18.7,15.0,50.0,1014.9,0.00,0,0.0,0.0,0,0.0,14.5,0.0,11.7,3.474
2009/04/02,01:20:01,194,11,190,0.7,9.3,18.0,15.0,58.3,1015.1,0.00,0,0.0,0.0,0,0.0,14.2,0.0,11.8,3.474
2009/04/02,01:30:01,194,13,190,0.8,9.4,20.2,14.9,59.7,1015.0,0.00,0,0.0,0.0,0,0.0,13.9,0.0,11.8,3.475
2009/04/02,01:40:01,195,8,185,0.7,9.3,22.8,15.0,61.1,1014.9,0.00,0,0.0,0.0,0,0.0,14.2,0.0,11.7,3.474
2009/04/02,01:50:01,193,9,187,0.4,9.2,18.6,14.9,55.7,1014.8,0.00,0,0.0,0.0,0,0.0,14.0,0.0,11.7,3.474
2009/04/02,02:00:01,189,5,174,0.8,9.7,18.1,14.9,51.1,1015.0,0.00,0,0.0,0.0,0,0.0,14.2,0.0,11.9,3.475
2009/04/02,02:10:01,188,4,180,0.7,9.1,17.8,15.0,50.0,1015.1,0.00,0,0.0,0.0,0,0.0,14.2,0.0,11.7,3.475
2009/04/02,02:20:01,190,9,179,0.0,8.4,17.5,14.9,55.7,1015.1,0.00,0,0.0,0.0,0,0.0,14.0,0.0,11.7,3.475
2009/04/02,02:30:01,194,14,191,0.2,8.8,17.3,14.9,53.2,1015.0,0.00,0,0.0,0.0,0,0.0,14.0,0.0,11.8,3.474
2009/04/02,02:40:01,193,11,183,0.3,8.8,17.2,14.8,52.8,1015.1,0.00,0,0.0,0.0,0,0.0,13.5,0.0,11.8,3.473
2009/04/02,02:50:01,191,7,186,0.1,9.2,19.3,15.0,51.3,1015.0,0.00,0,0.0,0.0,0,0.0,14.0,0.0,11.8,3.474
2009/04/02,03:00:01,192,8,187,0.5,9.2,19.8,15.1,54.8,1014.7,0.00,0,0.0,0.0,0,0.0,14.2,0.0,11.9,3.473
2009/04/02,03:10:01,196,14,188,0.6,9.1,17.8,14.9,55.1,1014.4,0.00,0,0.0,0.0,0,0.0,13.9,0.0,11.8,3.474
2009/04/02,03:20:01,195,10,189,0.5,9.3,18.3,14.9,60.0,1014.5,0.00,0,0.0,0.0,0,0.0,14.0,0.0,11.8,3.474
2009/04/02,03:30:01,198,14,190,0.5,9.3,18.2,14.8,59.7,1014.4,0.00,0,0.0,0.0,0,0.0,14.0,0.0,11.7,3.476
2009/04/02,03:40:01,201,15,195,0.2,9.4,20.8,14.7,58.1,1014.5,0.00,0,0.0,0.0,0,0.0,13.9,0.0,11.7,3.473
2009/04/02,03:50:01,193,14,188,0.2,9.4,18.6,14.5,58.7,1014.5,0.00,0,0.0,0.0,0,0.0,13.9,0.0,11.8,3.474
2009/04/02,04:00:01,196,10,190,0.4,9.2,19.8,14.4,56.3,1014.4,0.00,0,0.0,0.0,0,0.0,13.7,0.0,11.7,3.474
2009/04/02,04:10:01,198,11,183,0.4,9.1,20.8,14.3,57.0,1014.6,0.00,0,0.0,0.0,0,0.0,13.5,0.0,11.8,3.475
2009/04/02,04:20:01,200,11,189,0.3,9.1,20.3,14.4,55.2,1014.7,0.00,0,0.0,0.0,0,0.0,13.5,0.0,11.8,3.474
2009/04/02,04:30:01,188,7,187,0.3,8.8,18.0,14.4,53.5,1014.8,0.00,0,0.0,0.0,0,0.0,13.4,0.0,11.8,3.474
2009/04/02,04:40:01,196,13,189,0.2,9.0,23.5,14.3,51.3,1014.5,0.00,0,0.0,0.0,0,0.0,13.4,0.0,11.9,3.475
2009/04/02,04:50:01,196,11,191,0.3,8.5,16.9,14.2,52.5,1014.9,0.00,0,0.0,0.0,0,0.0,13.2,0.0,11.7,3.475
2009/04/02,05:00:01,197,15,191,0.2,8.5,17.7,14.2,58.2,1014.8,0.00,0,0.0,0.0,0,0.0,13.4,0.0,11.9,3.475
2009/04/02,05:10:01,201,16,191,0.5,9.1,24.5,14.2,53.0,1014.8,0.00,0,0.0,0.0,0,0.0,13.4,0.0,11.7,3.474
2009/04/02,05:20:01,193,13,191,0.4,8.4,17.2,14.2,52.6,1015.0,0.00,0,0.0,0.0,0,0.0,13.2,0.0,11.8,3.474
2009/04/02,05:30:01,193,9,167,0.3,8.0,15.5,14.2,48.7,1015.0,0.00,0,0.0,0.0,0,0.0,13.2,0.0,11.7,3.474
2009/04/02,05:40:01,194,12,187,0.6,7.8,16.5,14.3,54.7,1014.9,0.00,0,0.0,0.0,0,0.0,13.5,0.0,11.7,3.474
2009/04/02,05:50:01,205,22,201,0.3,8.6,19.6,14.2,56.4,1014.9,0.00,0,0.0,0.0,0,0.0,13.4,0.0,11.8,3.474
2009/04/02,06:00:01,202,20,199,0.3,9.0,19.7,14.3,53.7,1015.0,0.00,0,0.0,0.0,0,0.0,13.4,0.0,11.7,3.476
2009/04/02,06:10:01,204,20,200,0.6,9.0,19.2,14.4,52.9,1015.2,0.00,0,0.0,0.0,0,0.0,13.4,0.0,11.7,3.475
2009/04/02,06:20:01,199,18,193,0.2,8.2,18.0,14.4,57.6,1015.2,0.00,0,0.0,0.0,0,0.0,13.4,0.0,11.7,3.475
2009/04/02,06:30:01,198,18,197,0.5,8.4,19.1,14.3,53.2,1015.2,0.00,0,0.0,0.0,0,0.0,13.2,0.0,11.7,3.474
2009/04/02,06:40:01,198,16,190,0.7,8.0,17.4,14.5,58.4,1015.5,0.00,0,0.0,0.0,0,0.0,13.5,0.0,11.7,3.474
2009/04/02,06:50:01,205,24,203,0.2,9.1,18.7,14.4,54.9,1015.3,0.00,0,0.0,0.0,0,0.0,14.0,0.0,11.8,3.474
2009/04/02,07:00:01,202,22,200,0.3,8.7,18.9,14.6,55.1,1015.4,0.00,0,0.0,0.0,0,0.0,13.9,0.0,11.7,3.474
2009/04/02,07:10:01,203,20,198,0.4,9.0,19.7,14.6,50.7,1015.7,0.00,0,0.0,0.0,0,0.0,13.7,0.0,11.7,3.473
2009/04/02,07:20:01,205,25,201,0.6,8.3,17.0,14.6,52.1,1015.7,0.00,0,0.0,0.0,0,0.0,13.9,0.0,11.8,3.475
2009/04/02,07:30:01,200,19,198,0.2,7.9,17.0,14.8,54.1,1015.8,0.00,0,0.0,0.0,0,0.0,14.2,0.0,11.9,3.474
2009/04/02,07:40:01,201,20,199,0.4,8.1,16.0,14.7,56.0,1015.8,0.00,0,0.0,0.0,0,0.0,14.2,0.0,11.8,3.474
2009/04/02,07:50:01,197,16,194,0.5,7.4,15.3,14.8,59.2,1016.0,0.00,0,0.0,0.0,0,0.0,14.0,0.0,11.7,3.475
2009/04/02,08:00:01,200,16,197,0.4,7.9,17.5,14.8,57.1,1016.1,0.00,0,0.0,0.0,0,0.0,14.2,0.0,11.7,3.474
2009/04/02,08:10:01,203,24,202,0.4,7.3,15.4,14.8,55.4,1016.0,0.00,0,0.0,0.0,0,0.0,14.4,0.0,11.9,3.474
2009/04/02,08:20:01,206,27,204,0.2,8.5,15.3,15.1,56.4,1016.1,0.00,0,0.0,0.0,0,0.0,14.4,0.0,11.9,3.475
2009/04/02,08:30:01,213,29,207,0.9,9.5,17.2,15.1,54.5,1016.0,0.00,0,0.0,0.0,0,0.0,14.7,0.0,11.8,3.473
2009/04/02,08:40:01,210,30,210,0.4,9.6,18.7,15.3,53.4,1016.2,0.00,0,0.0,0.0,0,0.0,14.7,0.0,11.8,3.473
2009/04/02,08:50:01,214,32,211,0.3,9.6,17.2,15.5,53.8,1016.2,0.00,0,0.0,0.0,0,0.0,15.4,0.0,11.9,3.474
2009/04/02,09:00:01,212,32,212,0.1,9.5,18.7,15.6,52.9,1016.3,0.00,0,0.0,0.0,0,0.0,15.5,0.0,11.9,3.473
2009/04/02,09:10:01,211,29,210,0.4,9.9,17.1,15.9,51.6,1016.5,0.00,0,0.0,0.0,0,0.0,15.9,0.0,11.8,3.473
2009/04/02,09:20:01,209,29,206,0.9,10.2,18.2,15.9,50.2,1016.6,0.00,0,0.0,0.0,0,0.0,16.2,0.0,11.9,3.473
2009/04/02,09:30:01,216,34,213,0.3,10.1,16.9,15.6,50.1,1016.6,0.00,0,0.0,0.0,0,0.0,15.5,0.0,11.9,3.473
2009/04/02,09:40:01,213,32,212,0.6,9.5,18.3,16.0,50.2,1016.7,0.00,0,0.0,0.0,0,0.0,16.0,0.0,11.9,3.474
2009/04/02,09:50:01,209,28,207,0.5,9.7,17.8,16.2,53.3,1016.6,0.00,0,0.0,0.0,0,0.0,17.0,0.0,12.0,3.474
2009/04/02,10:00:01,214,34,213,0.3,9.8,15.9,16.1,54.0,1016.8,0.00,0,0.0,0.0,0,0.0,16.4,0.0,12.1,3.473
2009/04/02,10:10:01,217,33,213,0.2,9.5,17.1,15.8,54.8,1016.8,0.00,0,0.0,0.0,0,0.0,16.0,0.0,12.1,3.473
2009/04/02,10:20:01,211,31,210,0.3,10.0,18.5,16.0,53.1,1016.8,0.00,0,0.0,0.0,0,0.0,16.0,0.0,11.8,3.474
2009/04/02,10:30:01,214,32,212,0.2,9.5,15.9,16.4,49.0,1016.8,0.00,0,0.0,0.0,0,0.0,16.9,0.0,11.8,3.474
2009/04/02,10:40:01,214,32,212,0.2,9.4,15.7,16.7,53.0,1016.8,0.00,0,0.0,0.0,0,0.0,17.4,0.0,11.9,3.473
2009/04/02,10:50:01,211,30,210,0.2,9.4,16.5,16.3,51.0,1016.6,0.00,0,0.0,0.0,0,0.0,16.9,0.0,11.9,3.475
2009/04/02,11:00:01,215,34,214,0.2,9.5,15.2,16.3,51.2,1016.4,0.00,0,0.0,0.0,0,0.0,16.5,0.0,12.0,3.474
2009/04/02,11:10:01,217,35,210,0.7,9.6,16.7,16.2,51.7,1016.5,0.00,0,0.0,0.0,0,0.0,16.2,0.0,11.9,3.474
2009/04/02,11:20:01,214,35,213,0.1,9.4,16.5,16.5,51.8,1016.5,0.00,0,0.0,0.0,0,0.0,17.0,0.0,11.8,3.473
2009/04/02,11:30:01,219,36,217,0.2,9.5,15.8,16.8,51.5,1016.5,0.00,0,0.0,0.0,0,0.0,17.4,0.0,11.8,3.473
2009/04/02,11:40:01,217,36,216,0.4,9.5,17.4,16.4,49.0,1016.5,0.00,0,0.0,0.0,0,0.0,17.2,0.0,11.9,3.474
2009/04/02,11:50:01,218,38,217,0.3,9.5,15.9,16.3,53.2,1016.4,0.00,0,0.0,0.0,0,0.0,16.5,0.0,12.0,3.474
2009/04/02,12:00:01,223,42,219,0.6,8.9,15.0,16.1,52.3,1016.2,0.00,0,0.0,0.0,0,0.0,16.2,0.0,12.0,3.473
2009/04/02,12:10:01,225,40,219,0.7,9.2,16.0,16.1,51.7,1016.3,0.00,0,0.0,0.0,0,0.0,15.9,0.0,11.7,3.473
2009/04/02,12:20:01,218,34,209,0.9,9.1,15.8,16.7,49.7,1016.3,0.00,0,0.0,0.0,0,0.0,16.9,0.0,11.9,3.473
2009/04/02,12:30:01,214,32,211,0.1,9.0,15.7,17.5,47.8,1016.3,0.00,0,0.0,0.0,0,0.0,18.6,0.0,12.0,3.474
2009/04/02,12:40:01,216,35,213,0.3,9.1,15.6,17.4,47.5,1016.2,0.00,0,0.0,0.0,0,0.0,18.9,0.0,12.1,3.472
2009/04/02,12:50:01,213,32,210,0.3,9.5,15.7,17.8,48.8,1016.1,0.00,0,0.0,0.0,0,0.0,18.9,0.0,11.9,3.473
2009/04/02,13:00:01,208,28,208,0.2,9.4,16.3,17.9,49.1,1016.0,0.00,0,0.0,0.0,0,0.0,19.7,0.0,11.8,3.472
2009/04/02,13:10:01,217,36,213,0.3,9.1,16.3,17.2,54.1,1016.0,0.00,0,0.0,0.0,0,0.0,18.9,0.0,11.8,3.473
2009/04/02,13:20:01,225,35,214,0.4,9.1,16.1,17.1,55.7,1015.8,0.00,0,0.0,0.0,0,0.0,18.0,0.0,11.8,3.473
2009/04/02,13:30:01,220,40,218,0.4,8.9,15.6,16.7,56.6,1015.8,0.00,0,0.0,0.0,0,0.0,17.5,0.0,12.0,3.473
2009/04/02,13:40:01,229,43,221,0.3,8.5,14.4,16.4,55.5,1015.7,0.00,0,0.0,0.0,0,0.0,17.0,0.0,11.9,3.474
2009/04/02,13:50:01,230,47,223,0.0,7.4,12.9,15.9,55.3,1015.6,0.00,0,0.0,0.0,0,0.0,16.0,0.0,11.8,3.473
2009/04/02,14:00:01,228,46,222,0.2,7.4,12.8,15.8,55.7,1015.5,0.00,0,0.0,0.0,0,0.0,15.5,0.0,11.2,3.474
2009/04/02,14:10:01,227,44,220,0.2,7.4,14.3,15.7,55.1,1015.6,0.00,0,0.0,0.0,0,0.0,15.4,0.0,11.8,3.473
2009/04/02,14:20:01,224,43,221,0.1,7.0,12.6,15.9,56.4,1015.5,0.00,0,0.0,0.0,0,0.0,15.5,0.0,11.7,3.474
2009/04/02,14:30:01,232,53,224,0.1,6.1,12.0,16.0,55.9,1015.4,0.00,0,0.0,0.0,0,0.0,15.9,0.0,11.8,3.474